Temp
54 54 54 54 54 53 46 36 28 45 50 35 36 27 33 42 39 42 40 39 37 35 36 34 31 31 41 43 40 35 38 31 24 30 36 40 37 35 32 25 24 23 19 24
54 54 53 53 53 53 37 33 33 43 45 29 25 32 34 37 35 34 36 36 39 39 35 31 35 38 43 44 40 37 39 30 20 26 30 32 32 34 37 32 29 24 20 25
53 53 53 53 53 52 37 31 25 32 38 36 28 26 29 28 36 35 35 32 36 34 32 37 33 34 42 42 41 49 45 31 30 28 30 31 28 32 36 34 23 29 30 34
52 52 52 53 52 51 37 30 29 31 21 27 27 29 28 26 27 35 37 32 32 29 25 27 29 35 36 42 45 41 39 33 31 34 35 33 33 32 33 31 35 29 36 35
53 52 52 52 52 50 33 27 27 29 25 27 24 26 25 26 28 29 26 25 29 29 25 27 25 31 31 30 36 35 34 33 32 31 33 32 31 34 33 35 36 36 37 36
53 52 52 52 52 47 37 37 36 32 29 25 23 24 26 28 30 31 32 30 27 25 29 35 36 37 38 36 31 30 33 30 26 27 31 30 26 32 34 36 38 39 31 41
52 52 52 52 51 49 36 35 35 29 23 26 27 29 30 28 29 26 30 32 27 32 39 37 36 35 35 35 34 37 31 30 32 26 26 19 34 38 41 39 42 43 43 45
52 52 52 52 51 51 36 36 34 30 23 28 27 28 28 28 28 27 27 31 35 38 35 26 22 25 27 30 33 35 39 33 27 25 24 30 31 36 35 34 35 41 40 44
52 52 52 51 51 51 41 35 35 32 26 25 31 26 27 24 23 24 28 36 38 35 28 24 16 17 24 25 25 35 37 39 30 26 23 21 31 41 44 40 30 41 38 39
52 52 52 52 52 52 43 38 38 34 28 31 28 25 26 30 28 24 27 29 28 34 24 20 17 18 28 24 24 22 28 30 26 27 25 26 36 39 41 27 31 37 38 37
51 51 51 51 50 51 46 40 38 35 30 32 31 32 29 28 27 23 28 25 26 25 22 22 23 21 24 26 30 26 26 26 25 28 24 22 38 36 35 38 35 39 38 37
51 50 51 50 50 50 49 37 41 40 33 32 37 37 39 36 34 29 29 27 27 28 24 24 24 22 22 27 24 32 26 34 30 31 30 35 35 36 38 38 37 38 38 39
50 51 51 51 50 50 48 41 38 37 32 32 31 32 40 42 39 39 26 27 32 30 33 27 26 21 28 22 28 27 29 33 34 33 32 31 33 35 37 38 38 39 40 41
50 51 50 50 49 49 48 37 38 36 34 26 29 40 34 39 38 37 36 33 35 34 32 27 24 22 32 29 31 29 28 32 33 31 33 33 34 36 37 39 41 40 41 41
50 49 49 49 49 49 41 37 37 39 33 25 28 35 39 36 35 34 35 34 31 29 27 26 24 30 30 31 27 21 23 28 29 28 36 36 35 37 39 37 37 38 38 36
49 49 49 48 48 48 36 29 35 42 39 29 22 32 32 35 35 33 34 35 32 31 29 28 31 29 27 21 19 21 24 30 33 33 33 32 32 33 35 34 35 35 35 35
49 49 48 48 48 37 33 30 35 42 38 29 22 24 33 32 33 35 33 33 32 32 31 22 25 23 26 18 12 19 26 29 30 33 34 29 31 30 33 33 34 35 34 35
49 48 47 47 47 41 33 35 44 43 34 31 17 20 25 32 26 24 33 30 31 25 25 25 21 22 21 13 18 21 24 28 28 30 31 31 32 32 32 33 33 31 31 32
47 47 45 37 33 29 30 44 41 35 33 18 20 16 16 30 27 28 29 31 20 26 20 20 22 16 11 16 18 20 22 22 24 26 27 28 26 27 27 29 30 29 29 31
46 35 30 24 30 43 39 31 25 25 24 20 19 22 18 25 24 23 25 27 26 17 21 25 17 14 20 21 21 22 23 24 25 22 20 24 23 25 26 27 28 29 29 30
33 27 27 31 39 30 21 13 13 14 11 12 13 19 18 28 19 20 26 24 24 15 18 16 13 12 17 22 22 23 25 27 27 27 27 27 27 26 25 26 27 27 27 26
36 35 37 29 23 18 12 6 13 10 8 15 17 20 22 22 26 23 26 22 20 13 22 14 10 15 20 21 22 24 26 26 27 28 27 27 27 26 25 25 24 25 26 26
29 24 19 19 15 9 5 6 7 12 13 15 20 17 21 22 25 24 17 14 15 21 11 10 13 19 21 22 24 24 26 26 26 26 27 26 26 26 25 24 25 25 24 24
18 10 8 8 4 10 18 16 15 19 21 21 20 16 17 21 21 19 12 14 17 8 6 8 16 19 21 23 24 23 23 24 23 23 24 24 24 23 24 24 22 22 22 23
10 12 10 5 18 15 13 10 11 18 23 20 16 15 15 14 12 18 12 8 6 11 9 15 19 20 19 21 23 22 21 21 21 21 21 22 22 21 20 21 20 21 22 21
12 13 8 16 9 9 9 16 12 20 21 18 16 6 5 7 11 10 6 4 6 12 16 20 20 20 20 21 23 23 22 20 19 20 21 22 20 19 19 19 20 19 20 19
8 12 21 17 13 14 15 16 17 22 16 11 5 5 4 7 7 9 15 11 15 17 20 22 21 20 20 21 22 22 22 21 20 20 21 20 20 19 19 17 19 19 20 19
MSLP
1026.95 1026.50 1026.03 1025.56 1024.84 1023.95 1023.32 1023.44 1022.40 1020.09 1019.49 1020.25 1020.39 1020.47 1019.59 1018.36 1017.22 1016.72 1016.43 1015.51 1015.22 1014.92 1014.44 1014.13 1013.50 1012.52 1011.69 1011.31 1011.95 1012.99 1012.78 1013.28 1013.73 1013.07 1012.59 1012.50 1012.88 1013.23 1013.98 1014.81 1015.07 1014.68 1013.84 1010.57
1026.97 1026.55 1026.31 1025.84 1025.13 1024.51 1024.62 1024.27 1022.97 1020.32 1020.04 1020.70 1021.19 1020.82 1020.38 1019.60 1018.97 1018.67 1017.57 1016.55 1015.99 1015.44 1015.22 1014.89 1012.75 1011.75 1011.05 1010.99 1011.50 1011.42 1011.98 1012.39 1013.17 1012.56 1013.07 1012.91 1012.61 1012.27 1012.55 1013.36 1013.91 1013.49 1012.75 1009.55
1027.09 1026.66 1026.37 1026.04 1025.50 1025.00 1025.00 1024.95 1024.15 1022.35 1021.64 1022.41 1023.00 1022.68 1021.71 1021.02 1020.09 1019.35 1018.62 1018.46 1017.49 1016.58 1015.62 1014.90 1013.25 1012.37 1011.40 1010.93 1010.83 1010.63 1010.74 1010.76 1010.75 1010.61 1010.86 1011.30 1011.89 1011.36 1011.62 1012.28 1012.55 1011.39 1010.49 1008.41
1027.28 1026.93 1026.56 1026.04 1025.54 1025.25 1025.40 1025.53 1025.16 1024.92 1024.30 1023.53 1023.33 1023.47 1022.77 1021.56 1020.75 1019.79 1019.42 1018.22 1018.46 1018.58 1017.21 1015.92 1014.58 1013.01 1012.44 1011.50 1010.56 1010.67 1010.97 1010.68 1010.30 1009.65 1009.81 1010.34 1010.38 1010.16 1010.52 1010.74 1010.04 1009.84 1008.40 1007.94
1027.35 1027.02 1026.67 1026.34 1025.80 1025.61 1026.08 1026.21 1025.92 1025.38 1024.76 1024.44 1023.98 1023.62 1022.69 1021.75 1020.99 1020.65 1020.16 1019.67 1018.75 1018.19 1017.90 1017.51 1015.76 1014.98 1013.70 1013.06 1010.76 1010.42 1010.17 1009.72 1009.80 1009.35 1009.39 1009.65 1009.79 1009.17 1009.15 1009.11 1008.99 1008.32 1007.79 1006.61
1026.95 1026.61 1026.23 1025.94 1025.79 1025.88 1026.23 1026.17 1026.01 1025.71 1024.53 1024.10 1023.86 1022.99 1022.03 1021.30 1020.94 1020.53 1019.89 1019.60 1019.04 1018.16 1017.02 1016.47 1015.64 1014.93 1013.60 1012.81 1012.48 1011.66 1010.73 1009.84 1009.64 1008.73 1008.97 1009.20 1008.83 1007.31 1007.95 1007.73 1007.14 1006.83 1006.84 1005.19
1026.77 1026.37 1026.07 1025.70 1025.44 1025.38 1025.93 1025.89 1025.85 1025.24 1024.11 1023.78 1023.26 1022.39 1021.94 1021.11 1020.77 1020.46 1019.79 1019.19 1018.49 1016.86 1016.04 1015.37 1014.11 1013.17 1012.01 1011.35 1010.37 1010.72 1010.07 1009.87 1009.64 1008.73 1008.85 1007.39 1004.44 1004.99 1005.06 1005.40 1005.14 1005.41 1005.29 1004.98
1026.65 1026.17 1025.66 1025.11 1024.84 1024.60 1025.03 1024.89 1025.35 1024.92 1023.88 1023.00 1022.14 1021.59 1021.24 1020.75 1020.25 1019.82 1019.19 1018.03 1017.24 1016.44 1015.75 1014.69 1013.19 1011.14 1009.95 1008.58 1008.06 1008.17 1008.38 1008.90 1008.40 1007.67 1007.17 1005.97 1004.81 1004.54 1004.78 1004.97 1004.73 1004.45 1004.79 1004.51
1025.90 1025.45 1025.04 1024.50 1024.04 1023.81 1023.94 1023.93 1024.14 1024.31 1023.44 1021.54 1021.06 1021.19 1020.73 1020.29 1019.52 1018.42 1017.91 1016.64 1016.19 1015.92 1015.25 1014.19 1012.71 1010.59 1008.87 1007.07 1005.95 1005.53 1006.26 1006.72 1007.44 1006.68 1005.86 1004.88 1003.52 1003.72 1003.07 1004.01 1004.27 1004.05 1004.16 1004.39
1025.35 1024.79 1024.28 1023.72 1023.20 1022.78 1022.95 1022.75 1023.01 1022.95 1021.72 1020.28 1020.56 1020.18 1020.00 1019.65 1019.08 1018.16 1017.22 1016.49 1015.81 1014.96 1014.21 1013.15 1011.54 1009.32 1007.44 1006.18 1005.78 1005.42 1005.01 1005.47 1005.25 1005.45 1004.99 1004.56 1003.36 1002.84 1003.02 1004.18 1004.19 1004.05 1004.27 1004.54
1024.82 1024.22 1023.54 1022.96 1022.52 1021.98 1021.91 1021.24 1021.60 1021.57 1020.75 1019.41 1019.30 1018.97 1018.95 1018.79 1018.48 1017.80 1016.63 1016.59 1015.14 1014.72 1013.78 1012.54 1010.54 1008.19 1006.90 1005.19 1004.12 1004.18 1003.93 1003.97 1004.30 1004.59 1004.61 1003.67 1003.05 1003.45 1003.38 1003.54 1003.92 1004.18 1004.59 1004.88
1024.31 1023.56 1022.68 1022.01 1021.39 1020.83 1020.35 1019.92 1019.81 1019.92 1019.70 1018.79 1018.12 1017.40 1017.36 1017.39 1016.67 1017.10 1016.71 1016.17 1015.51 1015.12 1013.85 1012.75 1011.29 1009.72 1008.50 1005.28 1003.93 1003.15 1003.56 1002.61 1002.63 1003.35 1003.32 1003.07 1002.83 1002.74 1002.84 1003.20 1003.88 1004.61 1004.89 1005.24
1023.63 1022.77 1021.89 1021.11 1020.43 1019.68 1019.10 1018.38 1018.71 1018.93 1018.61 1017.56 1016.89 1015.42 1014.84 1015.22 1015.40 1015.31 1016.11 1015.04 1014.51 1013.92 1013.34 1012.55 1011.43 1010.01 1008.23 1006.59 1003.85 1003.41 1003.31 1002.76 1002.65 1003.53 1003.96 1003.95 1003.94 1003.86 1003.73 1003.91 1004.28 1004.93 1005.22 1005.69
1022.86 1021.96 1021.18 1020.35 1019.47 1018.68 1017.85 1017.81 1017.47 1018.05 1018.05 1017.34 1014.94 1014.31 1014.09 1013.65 1013.93 1014.29 1014.44 1013.63 1013.49 1013.23 1012.96 1012.28 1011.32 1010.34 1008.36 1005.97 1004.68 1004.72 1006.03 1004.46 1003.45 1003.80 1004.54 1005.03 1005.24 1005.14 1005.01 1005.33 1005.52 1005.69 1006.18 1006.50
1022.16 1021.39 1020.48 1019.56 1018.66 1017.96 1017.57 1017.56 1017.42 1017.32 1017.90 1016.81 1015.54 1014.33 1013.06 1012.87 1013.03 1013.11 1013.18 1013.09 1012.83 1012.22 1011.75 1011.28 1010.61 1009.48 1008.21 1006.62 1007.15 1008.07 1008.86 1006.67 1005.40 1004.64 1004.38 1004.81 1006.01 1006.42 1006.28 1006.51 1006.87 1007.08 1007.15 1007.94
1021.56 1020.71 1019.79 1018.88 1018.13 1017.43 1017.94 1017.76 1017.71 1017.27 1017.43 1017.38 1016.24 1014.55 1013.41 1012.85 1012.67 1012.40 1012.07 1011.54 1011.31 1011.18 1010.84 1010.63 1010.11 1010.83 1009.63 1010.23 1010.85 1011.05 1009.63 1007.69 1006.44 1005.71 1005.75 1006.10 1006.92 1007.54 1007.68 1007.99 1008.34 1008.66 1008.95 1009.30
1020.90 1019.95 1019.10 1018.37 1017.67 1017.81 1017.85 1018.03 1018.04 1017.66 1017.64 1017.56 1016.91 1015.62 1013.84 1013.18 1012.55 1011.67 1011.04 1010.69 1010.39 1010.51 1010.51 1012.59 1012.66 1012.61 1012.20 1013.69 1013.90 1012.95 1010.85 1009.32 1007.78 1007.09 1006.90 1007.87 1008.36 1009.14 1009.21 1009.34 1009.73 1010.03 1010.38 1010.52
1020.24 1019.34 1018.58 1017.92 1017.56 1017.57 1017.83 1017.68 1017.34 1016.98 1017.61 1017.81 1017.77 1016.60 1015.23 1013.90 1013.28 1012.59 1011.75 1010.99 1011.50 1013.02 1013.58 1014.46 1014.65 1014.73 1015.05 1015.84 1016.26 1014.73 1012.86 1011.43 1010.04 1009.81 1009.68 1010.22 1010.55 1010.60 1010.90 1011.04 1011.27 1011.45 1011.92 1012.26
1019.85 1018.83 1018.20 1018.23 1018.40 1018.65 1018.16 1017.61 1017.44 1017.47 1018.14 1018.60 1018.82 1018.57 1017.11 1015.19 1014.50 1013.55 1012.60 1011.97 1013.09 1014.60 1015.56 1016.13 1016.70 1017.16 1018.23 1019.56 1018.13 1016.65 1015.46 1014.46 1013.48 1012.68 1012.23 1012.19 1012.33 1012.85 1013.01 1012.95 1013.06 1013.12 1013.57 1013.63
1019.80 1019.43 1019.21 1019.37 1019.16 1018.42 1017.95 1017.88 1018.14 1018.43 1019.07 1019.57 1019.99 1019.62 1018.81 1017.45 1016.08 1014.54 1013.45 1012.55 1013.00 1015.24 1016.94 1017.48 1018.40 1019.73 1020.88 1020.29 1019.60 1018.45 1017.63 1016.89 1015.56 1014.60 1014.74 1014.69 1014.85 1015.07 1015.08 1015.17 1015.33 1015.34 1015.43 1015.37
1020.93 1020.97 1020.86 1020.01 1019.08 1018.92 1019.73 1020.63 1021.07 1021.40 1021.67 1021.36 1021.17 1020.53 1019.40 1017.79 1017.18 1015.86 1014.61 1013.78 1015.03 1016.89 1018.62 1019.02 1020.66 1021.60 1021.94 1021.48 1020.75 1020.16 1019.61 1018.56 1017.82 1017.66 1017.60 1017.30 1017.24 1017.09 1016.95 1016.97 1016.99 1017.00 1016.99 1016.95
1021.90 1021.80 1021.50 1021.20 1021.26 1021.81 1022.72 1023.75 1023.66 1023.67 1023.92 1022.76 1022.07 1020.80 1019.96 1018.75 1017.81 1016.58 1015.65 1015.92 1017.31 1019.09 1019.75 1020.84 1022.62 1023.76 1023.41 1022.81 1022.20 1021.52 1020.74 1020.03 1019.59 1019.24 1018.96 1018.84 1018.73 1018.66 1018.47 1018.43 1018.40 1018.48 1018.34 1018.13
1022.12 1022.42 1023.12 1023.83 1024.76 1025.46 1026.17 1026.23 1025.87 1025.33 1024.41 1023.43 1022.51 1021.60 1020.57 1019.42 1018.44 1017.68 1017.61 1018.49 1020.00 1020.62 1022.09 1023.52 1024.68 1024.75 1024.27 1023.64 1022.98 1022.26 1021.68 1021.23 1020.93 1020.61 1020.36 1020.24 1020.16 1019.98 1019.86 1019.83 1019.82 1019.58 1019.35 1019.28
1024.18 1025.17 1026.44 1026.95 1027.34 1027.69 1027.46 1027.44 1026.82 1025.58 1024.56 1023.80 1023.25 1022.44 1021.79 1020.61 1019.76 1019.62 1020.18 1021.28 1021.56 1023.15 1024.39 1025.37 1025.63 1025.38 1024.96 1024.32 1023.74 1023.18 1022.93 1022.65 1022.35 1022.01 1021.71 1021.53 1021.37 1021.22 1021.11 1021.02 1020.93 1020.72 1020.49 1020.29
1026.20 1026.91 1028.77 1028.66 1028.28 1028.05 1027.76 1027.35 1026.49 1025.35 1024.58 1024.08 1023.48 1023.16 1022.93 1022.18 1021.96 1022.25 1022.48 1023.38 1024.76 1025.56 1026.13 1026.29 1026.26 1025.94 1025.53 1024.96 1024.45 1024.17 1024.00 1023.82 1023.59 1023.20 1022.89 1022.61 1022.34 1021.99 1021.84 1021.79 1021.66 1021.41 1021.21 1020.93
1027.55 1028.46 1029.22 1028.79 1028.84 1028.43 1027.88 1027.09 1026.42 1025.20 1024.64 1024.06 1024.13 1024.45 1024.39 1024.90 1024.89 1025.09 1025.55 1025.91 1026.62 1027.01 1026.91 1026.69 1026.45 1026.24 1025.94 1025.59 1025.19 1024.94 1024.72 1024.45 1024.17 1023.83 1023.52 1023.25 1022.90 1022.68 1022.57 1022.36 1022.00 1021.69 1021.40 1021.23
1029.20 1029.70 1029.26 1029.18 1029.15 1029.05 1028.28 1027.56 1026.67 1025.64 1025.14 1025.61 1025.77 1026.78 1027.29 1026.88 1027.22 1027.46 1027.48 1027.70 1027.84 1027.60 1027.22 1026.99 1026.90 1026.79 1026.52 1026.14 1025.77 1025.43 1025.10 1024.81 1024.50 1024.18 1023.78 1023.44 1023.14 1022.95 1022.76 1022.48 1022.14 1021.93 1021.68 1021.51
Wind_Speed
19 19 22 25 26 27 12 4 4 4 2 1 1 2 4 8 5 9 6 6 5 8 6 7 8 10 8 8 9 11 8 6 5 12 3 7 5 8 8 5 6 3 3 9
18 20 21 22 23 24 3 5 5 4 3 4 3 6 9 10 11 11 5 8 7 10 10 8 9 12 6 9 10 10 9 6 1 6 4 1 7 7 9 4 3 7 6 8
18 19 20 22 23 22 4 3 5 5 5 6 6 7 6 11 14 14 5 10 16 12 15 12 12 6 5 4 6 7 8 7 11 14 7 6 6 8 15 11 4 10 14 12
17 18 19 20 19 20 3 3 3 2 4 8 13 5 6 12 10 7 10 9 9 18 13 19 16 11 11 12 8 7 10 17 9 11 5 7 6 6 15 16 23 11 17 15
19 19 19 20 20 15 3 2 2 3 4 4 4 5 7 15 8 5 14 11 15 19 19 16 23 21 18 15 4 6 5 18 9 16 9 9 10 10 10 17 18 20 18 21
19 19 18 18 18 8 2 1 2 4 7 3 4 5 11 13 13 10 9 14 18 21 26 20 22 20 24 19 18 19 4 5 6 19 7 6 12 15 15 12 13 14 15 25
21 20 19 18 17 14 3 4 3 4 9 8 11 15 15 19 20 17 19 20 18 20 21 22 18 21 24 24 26 20 14 14 11 10 5 16 10 9 14 22 19 17 15 15
20 20 20 20 19 18 3 3 2 3 8 9 17 13 13 14 10 17 18 23 19 15 17 6 11 9 8 20 27 21 21 15 8 9 11 9 5 5 8 9 9 8 11 13
21 21 22 21 21 21 8 4 4 3 5 13 8 10 12 13 12 15 11 15 11 11 10 5 8 11 17 8 4 15 20 19 10 4 9 14 6 14 8 6 9 6 3 5
22 23 24 23 23 23 10 6 7 5 7 13 6 8 11 4 9 8 10 8 9 11 4 6 9 13 9 13 6 4 12 13 17 15 8 5 6 6 7 7 6 4 3 2
24 24 25 25 27 26 16 10 7 6 8 14 9 7 13 8 5 10 12 8 3 3 5 5 7 5 5 6 6 8 12 12 8 7 5 9 7 4 11 5 2 6 4 3
25 26 27 28 28 28 23 11 5 7 7 9 8 15 16 18 25 12 5 8 13 5 5 4 4 6 5 8 5 6 6 6 7 9 6 2 1 1 4 6 7 5 7 6
28 28 29 29 29 29 25 13 5 3 5 10 8 11 14 16 20 17 7 5 7 5 5 3 3 8 4 8 10 3 3 1 5 6 1 4 5 5 5 5 8 7 7 8
29 29 30 30 29 27 20 3 3 2 2 5 9 4 6 5 9 14 16 20 12 11 8 7 5 6 6 6 4 5 5 8 2 5 5 7 7 6 8 10 10 13 12 11
30 31 30 30 28 24 7 2 2 3 3 3 7 10 10 3 3 8 11 14 15 10 7 4 5 5 8 2 4 6 11 6 3 0 9 4 6 5 9 12 11 10 13 12
30 30 31 29 26 19 2 3 3 3 1 3 4 4 7 5 6 8 11 11 8 6 2 2 2 4 7 7 6 15 21 12 5 2 12 14 11 9 11 10 11 11 12 9
31 30 30 25 18 3 1 2 2 2 2 3 5 5 4 5 5 6 5 5 2 2 1 6 5 6 5 4 8 24 18 14 15 10 8 20 17 10 11 13 12 15 12 12
32 31 25 16 9 5 3 2 14 5 0 1 2 6 7 5 4 6 3 4 7 10 5 2 6 4 5 7 22 20 21 17 22 19 18 16 16 18 18 15 15 18 15 13
31 25 14 4 5 4 4 20 4 3 2 1 2 4 7 7 4 3 3 1 4 3 9 7 6 7 11 13 17 20 21 18 16 20 22 22 23 20 20 19 18 18 15 14
22 7 5 4 2 17 8 4 4 4 3 4 3 2 7 5 3 4 4 2 4 4 6 3 6 10 14 18 17 17 20 19 20 23 24 21 20 18 18 18 15 14 13 13
5 5 3 4 12 4 5 5 5 5 6 4 3 3 11 4 3 4 3 3 5 5 6 4 5 6 13 16 18 18 17 17 18 16 15 15 15 14 14 15 14 13 13 12
6 7 5 4 7 5 8 4 5 6 3 5 5 10 6 4 3 4 5 5 5 6 3 5 4 7 12 13 14 15 15 16 17 16 16 15 16 13 13 12 12 11 10 10
3 5 6 5 6 10 6 7 6 6 5 4 9 11 3 4 2 3 5 7 5 2 5 4 4 8 11 11 11 12 14 15 15 15 14 13 13 13 13 11 10 9 9 9
5 5 8 5 6 3 2 5 6 5 4 10 9 5 2 3 5 3 7 2 5 5 4 4 4 9 10 10 9 10 12 13 12 12 11 11 10 9 8 8 7 7 8 7
4 5 3 2 2 3 4 4 4 4 6 7 4 3 1 4 6 5 5 7 6 5 3 2 5 7 7 9 10 9 9 9 8 7 7 8 8 7 7 6 6 6 5 6
5 6 4 3 3 5 4 6 4 3 8 3 2 2 6 7 4 7 5 5 5 3 2 3 3 6 7 8 8 8 7 6 6 6 6 5 6 6 5 6 6 6 5 6
5 3 1 1 2 4 4 3 4 6 4 4 3 8 2 2 6 5 5 4 2 3 3 2 4 5 7 7 7 8 8 7 7 6 6 6 5 5 5 6 6 6 6 5
Wind_Direction
357 358 354 355 348 358 1 9 331 313 339 162 251 262 287 325 350 353 305 306 265 254 222 240 237 229 211 142 148 170 208 158 207 214 224 184 188 195 158 155 217 247 166 271
2 356 358 356 354 358 341 344 278 305 59 265 281 316 327 310 349 354 305 277 295 303 291 299 259 257 219 190 171 168 182 220 300 319 360 20 210 193 197 125 95 200 150 258
348 357 356 355 356 357 37 352 333 323 349 36 31 342 330 337 322 319 333 329 326 330 292 258 269 282 307 241 222 275 185 188 190 231 206 139 204 192 195 189 166 236 222 263
348 352 343 350 353 359 59 7 306 132 305 327 322 315 270 294 313 269 301 309 309 313 299 314 291 308 315 279 245 217 174 246 219 233 186 175 212 192 195 204 220 209 245 224
345 345 344 342 344 7 50 305 351 316 250 266 231 268 262 290 288 314 304 288 309 312 293 295 306 299 287 272 301 231 191 240 215 249 204 205 246 228 200 214 228 245 258 269
340 338 335 333 331 10 322 267 289 277 278 239 232 233 269 274 291 289 254 294 292 293 286 279 273 274 277 253 278 281 260 202 158 246 180 164 258 224 211 214 212 220 228 247
334 330 326 326 325 325 190 238 248 270 281 283 277 280 276 276 286 280 278 285 280 269 289 294 274 255 254 249 246 239 246 253 253 249 150 219 240 192 201 214 234 235 243 260
320 318 317 315 313 304 208 206 204 281 286 287 285 278 276 283 277 276 269 272 261 280 291 278 282 274 242 235 237 228 223 230 235 219 221 273 264 185 161 167 252 218 225 239
322 322 317 313 310 308 298 213 184 222 272 267 246 297 272 278 278 285 239 267 278 275 266 241 252 259 264 244 255 214 200 202 207 183 216 226 207 231 233 128 260 244 194 264
321 322 318 315 310 309 301 272 192 245 259 262 222 232 274 246 265 270 294 295 300 279 241 244 243 246 224 230 226 194 190 198 221 218 237 258 239 157 121 148 223 148 150 242
323 322 313 312 307 303 300 279 196 227 266 276 225 231 250 257 225 277 293 306 265 255 248 317 307 280 264 214 194 193 186 185 191 209 239 244 176 77 193 197 123 131 115 78
317 319 319 314 312 304 296 279 243 221 236 270 268 256 240 236 245 265 242 253 284 264 274 283 279 313 258 274 243 161 244 206 196 186 201 327 95 109 123 138 139 139 119 104
323 325 321 321 319 314 310 283 244 203 256 269 255 254 253 232 234 236 254 245 217 233 230 266 284 274 309 288 247 141 346 357 147 130 95 60 39 42 64 93 107 102 100 102
327 327 322 322 320 320 317 259 204 182 277 261 277 273 276 237 217 220 215 242 262 265 263 266 254 266 254 267 279 60 349 307 78 65 94 77 43 53 82 85 89 87 73 67
326 327 324 323 320 322 325 261 247 210 233 329 290 310 283 299 244 238 225 235 244 254 252 229 255 266 264 215 21 55 338 345 303 250 171 100 116 74 74 82 72 65 82 74
325 325 324 325 319 328 345 352 357 36 307 255 287 303 288 313 294 272 273 272 257 239 223 235 42 296 347 21 16 344 334 320 280 28 65 74 82 58 56 61 63 61 69 62
323 327 326 324 323 52 187 203 237 349 187 299 304 301 278 296 282 294 294 276 261 335 80 23 11 354 23 60 5 334 343 11 43 42 64 55 48 67 63 69 69 68 64 57
327 327 327 323 349 17 5 295 329 339 126 321 300 283 322 12 320 319 333 328 40 12 45 17 7 12 29 35 348 354 7 13 37 45 57 69 68 63 61 63 66 65 60 60
329 327 326 17 38 7 272 307 25 49 67 85 27 348 316 346 313 295 287 307 78 144 61 36 29 28 41 347 353 9 16 22 32 43 49 52 54 53 48 50 50 57 51 49
331 4 21 350 281 311 331 10 19 16 354 24 59 308 315 326 318 293 301 319 69 62 32 74 31 52 22 10 9 17 21 25 31 38 32 37 46 48 47 47 46 48 46 47
359 358 336 271 323 24 29 16 49 331 10 5 305 310 319 304 299 301 287 18 44 62 14 57 28 23 7 1 13 14 15 26 35 46 47 47 48 46 47 43 43 42 41 37
296 300 311 346 19 24 47 343 346 34 311 320 341 326 304 292 284 286 355 65 46 59 333 52 44 6 358 4 4 13 17 22 28 31 37 38 39 34 42 40 35 32 34 32
22 35 36 33 322 29 47 342 321 332 320 296 327 327 309 309 289 335 32 59 68 60 37 51 27 355 355 352 357 5 13 17 21 25 30 34 36 33 33 31 22 23 29 22
61 53 16 68 352 353 340 321 295 277 276 314 315 293 312 304 349 357 61 335 52 53 52 46 360 351 340 345 359 8 7 10 11 13 14 22 25 28 30 30 16 16 21 9
65 59 36 13 284 269 264 254 304 266 290 309 304 308 14 334 41 21 30 40 51 42 31 10 343 337 336 347 358 1 0 2 1 356 3 6 6 12 12 11 9 10 9 8
62 45 25 313 39 312 326 331 289 302 323 310 28 3 41 30 46 24 22 62 43 31 343 307 328 343 343 346 349 350 348 345 344 351 351 355 6 3 350 346 2 357 2 359
45 22 312 340 249 258 287 310 299 315 349 16 45 43 343 329 37 30 16 36 22 323 326 350 352 345 338 336 342 345 344 343 341 336 343 337 338 339 350 353 342 346 340 334